Time,TemperatureF,DewpointF,PressureIn,WindDirection,WindDirectionDegrees,WindSpeedMPH,WindSpeedGustMPH,Humidity,HourlyPrecipIn,Conditions,Clouds,dailyrainin,SolarRadiationWatts/m^2,SoftwareType,DateUTC
2013-10-01 00:04:00,65.3,54.1,29.49,NNW,346,0.0,4.0,67,0.00,,,0.00,0.0,meteohub,2013-10-01 05:04:00,
2013-10-01 00:09:00,65.5,53.8,29.49,NNW,340,0.0,3.0,66,0.00,,,0.00,0.0,meteohub,2013-10-01 05:09:00,
2013-10-01 00:14:00,65.7,54.0,29.49,SE,124,0.0,3.0,66,0.00,,,0.00,0.0,meteohub,2013-10-01 05:14:00,
2013-10-01 00:20:00,65.5,54.7,29.49,SW,214,1.0,3.0,68,0.00,,,0.00,0.0,meteohub,2013-10-01 05:20:00,
2013-10-01 00:24:00,65.3,54.1,29.49,ENE,64,0.0,3.0,67,0.00,,,0.00,0.0,meteohub,2013-10-01 05:24:00,
2013-10-01 00:30:00,65.1,54.3,29.49,ENE,63,0.0,3.0,68,0.00,,,0.00,0.0,meteohub,2013-10-01 05:30:00,
2013-10-01 00:35:00,64.9,54.9,29.49,ENE,63,0.0,3.0,70,0.00,,,0.00,0.0,meteohub,2013-10-01 05:35:00,
2013-10-01 00:40:00,64.8,54.3,29.49,West,269,0.0,2.0,69,0.00,,,0.00,0.0,meteohub,2013-10-01 05:40:00,
2013-10-01 00:45:00,64.8,54.7,29.49,North,5,0.0,4.0,70,0.00,,,0.00,0.0,meteohub,2013-10-01 05:45:00,
2013-10-01 00:50:00,64.9,54.1,29.49,WNW,294,0.0,4.0,68,0.00,,,0.00,0.0,meteohub,2013-10-01 05:50:00,
2013-10-01 00:55:00,64.9,54.1,29.49,West,277,0.0,4.0,68,0.00,,,0.00,0.0,meteohub,2013-10-01 05:55:00,
2013-10-01 01:00:00,64.9,54.1,29.49,WNW,284,1.0,2.0,68,0.00,,,0.00,0.0,meteohub,2013-10-01 06:00:00,
2013-10-01 01:05:00,64.8,54.3,29.49,WSW,239,2.0,2.0,69,0.00,,,0.00,0.0,meteohub,2013-10-01 06:05:00,
2013-10-01 01:10:00,64.9,54.1,29.49,WNW,290,0.0,2.0,68,0.00,,,0.00,0.0,meteohub,2013-10-01 06:10:00,
2013-10-01 01:15:00,64.9,54.1,29.50,WNW,290,0.0,2.0,68,0.00,,,0.00,0.0,meteohub,2013-10-01 06:15:00,
2013-10-01 01:20:00,64.9,54.5,29.50,East,91,0.0,2.0,69,0.00,,,0.00,0.0,meteohub,2013-10-01 06:20:00,
2013-10-01 01:25:00,64.9,54.5,29.50,WNW,284,1.0,3.0,69,0.00,,,0.00,0.0,meteohub,2013-10-01 06:25:00,
2013-10-01 01:30:00,65.3,54.5,29.50,SSW,199,0.0,3.0,68,0.00,,,0.00,0.0,meteohub,2013-10-01 06:30:00,
2013-10-01 01:35:00,65.7,54.3,29.50,West,277,1.0,3.0,67,0.00,,,0.00,0.0,meteohub,2013-10-01 06:35:00,
2013-10-01 01:40:00,65.8,54.5,29.50,WSW,252,0.0,5.0,67,0.00,,,0.00,0.0,meteohub,2013-10-01 06:40:00,
2013-10-01 01:45:00,65.8,54.5,29.51,WSW,254,1.0,5.0,67,0.00,,,0.00,0.0,meteohub,2013-10-01 06:45:00,
2013-10-01 01:50:00,66.4,54.3,29.52,WSW,255,3.0,5.0,65,0.00,,,0.00,0.0,meteohub,2013-10-01 06:50:00,
2013-10-01 01:55:00,66.9,54.3,29.52,West,262,1.0,4.0,64,0.00,,,0.00,0.0,meteohub,2013-10-01 06:55:00,
2013-10-01 02:00:00,67.1,54.1,29.53,West,259,0.0,4.0,63,0.00,,,0.00,0.0,meteohub,2013-10-01 07:00:00,
2013-10-01 02:05:00,67.3,54.3,29.54,WSW,254,3.0,5.0,63,0.00,,,0.00,0.0,meteohub,2013-10-01 07:05:00,
2013-10-01 02:10:00,67.5,54.5,29.54,WSW,254,1.0,5.0,63,0.00,,,0.00,0.0,meteohub,2013-10-01 07:10:00,
2013-10-01 02:16:00,67.3,54.7,29.54,WSW,242,2.0,5.0,64,0.00,,,0.00,0.0,meteohub,2013-10-01 07:16:00,
2013-10-01 02:21:00,67.5,54.5,29.54,West,260,1.0,5.0,63,0.00,,,0.00,0.0,meteohub,2013-10-01 07:21:00,
2013-10-01 02:26:00,67.5,54.5,29.55,West,261,3.0,6.0,63,0.00,,,0.00,0.0,meteohub,2013-10-01 07:26:00,
2013-10-01 02:31:00,67.5,54.5,29.54,West,270,3.0,6.0,63,0.00,,,0.00,0.0,meteohub,2013-10-01 07:31:00,
2013-10-01 02:36:00,67.6,54.1,29.54,West,263,4.0,6.0,62,0.00,,,0.00,0.0,meteohub,2013-10-01 07:36:00,
2013-10-01 02:41:00,67.6,53.8,29.54,West,262,4.0,7.0,61,0.00,,,0.00,0.0,meteohub,2013-10-01 07:41:00,
2013-10-01 02:46:00,67.8,54.3,29.55,WSW,257,3.0,7.0,62,0.00,,,0.00,0.0,meteohub,2013-10-01 07:46:00,
2013-10-01 02:51:00,67.6,54.7,29.55,West,261,2.0,7.0,63,0.00,,,0.00,0.0,meteohub,2013-10-01 07:51:00,
2013-10-01 02:56:00,67.3,54.3,29.56,WSW,254,2.0,6.0,63,0.00,,,0.00,0.0,meteohub,2013-10-01 07:56:00,
2013-10-01 03:02:00,67.3,54.3,29.56,West,261,4.0,6.0,63,0.00,,,0.00,0.0,meteohub,2013-10-01 08:02:00,
2013-10-01 03:07:00,67.1,54.5,29.57,WSW,251,2.0,6.0,64,0.00,,,0.00,0.0,meteohub,2013-10-01 08:07:00,
2013-10-01 03:12:00,66.9,54.0,29.57,WSW,253,4.0,6.0,63,0.00,,,0.00,0.0,meteohub,2013-10-01 08:12:00,
2013-10-01 03:17:00,66.7,54.1,29.57,West,266,4.0,6.0,64,0.00,,,0.00,0.0,meteohub,2013-10-01 08:17:00,
2013-10-01 03:22:00,66.4,53.8,29.58,West,264,3.0,5.0,64,0.00,,,0.00,0.0,meteohub,2013-10-01 08:22:00,
2013-10-01 03:27:00,66.0,54.0,29.60,West,259,4.0,5.0,65,0.00,,,0.00,0.0,meteohub,2013-10-01 08:27:00,
2013-10-01 03:32:00,65.8,53.8,29.61,West,261,4.0,6.0,65,0.00,,,0.00,0.0,meteohub,2013-10-01 08:32:00,
2013-10-01 03:37:00,65.8,54.1,29.61,WSW,251,4.0,8.0,66,0.00,,,0.00,0.0,meteohub,2013-10-01 08:37:00,
2013-10-01 03:42:00,65.7,54.0,29.62,WSW,251,2.0,8.0,66,0.00,,,0.00,0.0,meteohub,2013-10-01 08:42:00,
2013-10-01 03:47:00,65.3,53.6,29.62,WSW,256,5.0,8.0,66,0.00,,,0.00,0.0,meteohub,2013-10-01 08:47:00,
2013-10-01 03:52:00,64.9,53.8,29.62,WSW,254,4.0,7.0,67,0.00,,,0.00,0.0,meteohub,2013-10-01 08:52:00,
2013-10-01 03:57:00,64.6,53.8,29.63,West,263,3.0,5.0,68,0.00,,,0.00,0.0,meteohub,2013-10-01 08:57:00,
2013-10-01 04:02:00,64.0,53.6,29.64,WSW,258,4.0,6.0,69,0.00,,,0.00,0.0,meteohub,2013-10-01 09:02:00,
2013-10-01 04:07:00,63.9,54.0,29.64,West,269,3.0,6.0,70,0.00,,,0.00,0.0,meteohub,2013-10-01 09:07:00,
2013-10-01 04:12:00,63.3,53.4,29.64,West,266,3.0,6.0,70,0.00,,,0.00,0.0,meteohub,2013-10-01 09:12:00,
2013-10-01 04:17:00,63.1,53.2,29.64,West,271,4.0,5.0,70,0.00,,,0.00,0.0,meteohub,2013-10-01 09:17:00,
2013-10-01 04:22:00,63.0,53.4,29.65,West,267,3.0,5.0,71,0.00,,,0.00,0.0,meteohub,2013-10-01 09:22:00,
2013-10-01 04:27:00,62.6,53.4,29.65,WSW,256,3.0,5.0,72,0.00,,,0.00,0.0,meteohub,2013-10-01 09:27:00,
2013-10-01 04:32:00,62.2,53.4,29.66,West,263,4.0,5.0,73,0.00,,,0.00,0.0,meteohub,2013-10-01 09:32:00,
2013-10-01 04:37:00,62.1,53.2,29.66,WSW,258,2.0,5.0,73,0.00,,,0.00,0.0,meteohub,2013-10-01 09:37:00,
2013-10-01 04:42:00,61.7,53.2,29.67,West,261,2.0,5.0,74,0.00,,,0.00,0.0,meteohub,2013-10-01 09:42:00,
2013-10-01 04:47:00,61.3,53.1,29.67,WSW,252,3.0,5.0,74,0.00,,,0.00,0.0,meteohub,2013-10-01 09:47:00,
2013-10-01 04:52:00,61.2,53.2,29.68,West,265,4.0,5.0,75,0.00,,,0.00,0.0,meteohub,2013-10-01 09:52:00,
2013-10-01 04:57:00,60.8,52.9,29.68,West,267,2.0,5.0,75,0.00,,,0.00,0.0,meteohub,2013-10-01 09:57:00,
2013-10-01 05:02:00,60.6,52.7,29.68,West,279,3.0,5.0,75,0.00,,,0.00,0.0,meteohub,2013-10-01 10:02:00,
2013-10-01 05:07:00,60.4,52.9,29.68,WSW,247,3.0,5.0,76,0.00,,,0.00,0.0,meteohub,2013-10-01 10:07:00,
2013-10-01 05:12:00,60.3,52.7,29.68,West,259,2.0,5.0,76,0.00,,,0.00,0.0,meteohub,2013-10-01 10:12:00,
2013-10-01 05:17:00,59.7,52.5,29.69,WSW,258,2.0,5.0,77,0.00,,,0.00,0.0,meteohub,2013-10-01 10:17:00,
2013-10-01 05:22:00,59.5,52.3,29.70,WSW,257,2.0,4.0,77,0.00,,,0.00,0.0,meteohub,2013-10-01 10:22:00,
2013-10-01 05:28:00,59.4,52.2,29.70,West,263,3.0,4.0,77,0.00,,,0.00,0.0,meteohub,2013-10-01 10:28:00,
2013-10-01 05:33:00,59.0,52.2,29.70,West,265,3.0,4.0,78,0.00,,,0.00,0.0,meteohub,2013-10-01 10:33:00,
2013-10-01 05:38:00,58.6,51.8,29.71,West,261,3.0,4.0,78,0.00,,,0.00,0.0,meteohub,2013-10-01 10:38:00,
2013-10-01 05:43:00,58.6,52.2,29.72,West,261,2.0,4.0,79,0.00,,,0.00,0.0,meteohub,2013-10-01 10:43:00,
2013-10-01 05:48:00,58.5,51.6,29.72,West,273,3.0,4.0,78,0.00,,,0.00,0.0,meteohub,2013-10-01 10:48:00,
2013-10-01 05:53:00,58.3,51.4,29.73,WSW,254,3.0,4.0,78,0.00,,,0.00,0.0,meteohub,2013-10-01 10:53:00,
2013-10-01 05:58:00,58.1,51.3,29.73,West,261,2.0,4.0,78,0.00,,,0.00,0.0,meteohub,2013-10-01 10:58:00,
2013-10-01 06:03:00,57.9,50.7,29.73,West,259,4.0,4.0,77,0.00,,,0.00,0.0,meteohub,2013-10-01 11:03:00,
2013-10-01 06:08:00,57.9,50.4,29.74,WSW,254,2.0,5.0,76,0.00,,,0.00,0.0,meteohub,2013-10-01 11:08:00,
2013-10-01 06:13:00,57.9,50.0,29.74,West,265,4.0,5.0,75,0.00,,,0.00,0.0,meteohub,2013-10-01 11:13:00,
2013-10-01 06:18:00,57.9,50.0,29.75,WSW,254,2.0,5.0,75,0.00,,,0.00,0.0,meteohub,2013-10-01 11:18:00,
2013-10-01 06:23:00,57.7,49.8,29.76,WSW,255,2.0,5.0,75,0.00,,,0.00,0.0,meteohub,2013-10-01 11:23:00,
2013-10-01 06:28:00,57.7,49.5,29.76,WSW,256,3.0,5.0,74,0.00,,,0.00,0.0,meteohub,2013-10-01 11:28:00,
2013-10-01 06:33:00,57.6,48.9,29.77,West,261,3.0,5.0,73,0.00,,,0.00,0.0,meteohub,2013-10-01 11:33:00,
2013-10-01 06:38:00,57.4,48.7,29.77,West,261,2.0,4.0,73,0.00,,,0.00,0.0,meteohub,2013-10-01 11:38:00,
2013-10-01 06:43:00,57.2,48.9,29.78,West,261,1.0,4.0,74,0.00,,,0.00,0.0,meteohub,2013-10-01 11:43:00,
2013-10-01 06:49:00,56.8,48.9,29.78,West,261,2.0,4.0,75,0.00,,,0.00,0.0,meteohub,2013-10-01 11:49:00,
2013-10-01 06:54:00,56.7,49.1,29.78,West,261,1.0,3.0,76,0.00,,,0.00,0.0,meteohub,2013-10-01 11:54:00,
2013-10-01 06:59:00,56.3,49.1,29.78,West,261,2.0,3.0,77,0.00,,,0.00,0.0,meteohub,2013-10-01 11:59:00,
2013-10-01 07:04:00,55.9,48.9,29.78,West,261,2.0,2.0,77,0.00,,,0.00,0.0,meteohub,2013-10-01 12:04:00,
2013-10-01 07:09:00,55.8,48.9,29.78,West,261,1.0,3.0,78,0.00,,,0.00,0.0,meteohub,2013-10-01 12:09:00,
2013-10-01 07:14:00,55.4,48.9,29.78,WSW,257,2.0,3.0,79,0.00,,,0.00,0.0,meteohub,2013-10-01 12:14:00,
2013-10-01 07:19:00,55.2,48.7,29.78,WSW,257,2.0,3.0,79,0.00,,,0.00,0.0,meteohub,2013-10-01 12:19:00,
2013-10-01 07:24:00,55.0,48.4,29.78,WSW,257,1.0,3.0,78,0.00,,,0.00,0.0,meteohub,2013-10-01 12:24:00,
2013-10-01 07:30:00,54.9,48.2,29.79,WSW,257,1.0,3.0,78,0.00,,,0.00,5.0,meteohub,2013-10-01 12:30:00,
2013-10-01 07:35:00,54.5,47.8,29.80,WSW,257,2.0,3.0,78,0.00,,,0.00,7.0,meteohub,2013-10-01 12:35:00,
2013-10-01 07:40:00,54.3,47.7,29.80,WSW,257,2.0,3.0,78,0.00,,,0.00,7.0,meteohub,2013-10-01 12:40:00,
2013-10-01 07:45:00,54.3,47.7,29.80,WSW,257,2.0,4.0,78,0.00,,,0.00,9.0,meteohub,2013-10-01 12:45:00,
2013-10-01 07:51:00,54.3,48.0,29.80,WSW,257,2.0,4.0,79,0.00,,,0.00,11.0,meteohub,2013-10-01 12:51:00,
2013-10-01 07:56:00,54.3,47.7,29.81,WSW,250,0.0,4.0,78,0.00,,,0.00,11.0,meteohub,2013-10-01 12:56:00,
2013-10-01 08:01:00,54.3,47.7,29.81,WSW,250,1.0,4.0,78,0.00,,,0.00,12.0,meteohub,2013-10-01 13:01:00,
2013-10-01 08:06:00,54.1,47.5,29.81,WSW,250,1.0,4.0,78,0.00,,,0.00,12.0,meteohub,2013-10-01 13:06:00,
2013-10-01 08:11:00,54.1,47.5,29.82,WSW,250,1.0,3.0,78,0.00,,,0.00,14.0,meteohub,2013-10-01 13:11:00,
2013-10-01 08:17:00,54.0,47.3,29.82,WSW,250,0.0,3.0,78,0.00,,,0.00,14.0,meteohub,2013-10-01 13:17:00,
2013-10-01 08:22:00,54.0,47.3,29.82,WSW,250,0.0,3.0,78,0.00,,,0.00,16.0,meteohub,2013-10-01 13:22:00,
2013-10-01 08:27:00,54.0,47.3,29.83,WSW,250,1.0,3.0,78,0.00,,,0.00,18.0,meteohub,2013-10-01 13:27:00,
2013-10-01 08:32:00,54.1,47.5,29.82,WSW,250,0.0,2.0,78,0.00,,,0.00,19.0,meteohub,2013-10-01 13:32:00,
2013-10-01 08:37:00,54.1,47.8,29.83,WSW,250,0.0,2.0,79,0.00,,,0.00,21.0,meteohub,2013-10-01 13:37:00,
2013-10-01 08:42:00,54.1,47.1,29.83,WSW,250,0.0,2.0,77,0.00,,,0.00,23.0,meteohub,2013-10-01 13:42:00,
2013-10-01 08:47:00,54.5,47.8,29.83,WSW,250,1.0,3.0,78,0.00,,,0.00,25.0,meteohub,2013-10-01 13:47:00,
2013-10-01 08:52:00,54.9,47.1,29.83,WSW,250,2.0,3.0,75,0.00,,,0.00,26.0,meteohub,2013-10-01 13:52:00,
2013-10-01 08:57:00,55.6,47.1,29.84,WSW,250,0.0,3.0,73,0.00,,,0.00,28.0,meteohub,2013-10-01 13:57:00,
2013-10-01 09:02:00,55.8,47.7,29.83,WSW,250,1.0,3.0,74,0.00,,,0.00,30.0,meteohub,2013-10-01 14:02:00,
2013-10-01 09:07:00,56.1,48.0,29.84,WSW,250,2.0,3.0,74,0.00,,,0.00,32.0,meteohub,2013-10-01 14:07:00,
2013-10-01 09:12:00,56.5,47.5,29.83,WSW,253,4.0,5.0,72,0.00,,,0.00,32.0,meteohub,2013-10-01 14:12:00,
2013-10-01 09:17:00,57.0,47.3,29.84,West,275,2.0,6.0,70,0.00,,,0.00,33.0,meteohub,2013-10-01 14:17:00,
2013-10-01 09:22:00,57.6,46.2,29.84,WNW,282,2.0,6.0,66,0.00,,,0.00,35.0,meteohub,2013-10-01 14:22:00,
2013-10-01 09:27:00,57.9,46.2,29.85,West,261,1.0,6.0,65,0.00,,,0.00,35.0,meteohub,2013-10-01 14:27:00,
2013-10-01 09:33:00,58.3,46.9,29.85,West,267,2.0,5.0,66,0.00,,,0.00,37.0,meteohub,2013-10-01 14:33:00,
2013-10-01 09:38:00,58.5,48.0,29.85,WSW,257,0.0,5.0,68,0.00,,,0.00,37.0,meteohub,2013-10-01 14:38:00,
2013-10-01 09:43:00,58.5,46.4,29.85,WSW,249,2.0,4.0,64,0.00,,,0.00,39.0,meteohub,2013-10-01 14:43:00,
2013-10-01 09:48:00,59.2,46.6,29.86,West,269,2.0,7.0,63,0.00,,,0.00,39.0,meteohub,2013-10-01 14:48:00,
2013-10-01 09:53:00,59.5,46.6,29.86,WSW,251,2.0,7.0,62,0.00,,,0.00,44.0,meteohub,2013-10-01 14:53:00,
2013-10-01 09:58:00,59.5,46.0,29.86,West,266,1.0,7.0,61,0.00,,,0.00,42.0,meteohub,2013-10-01 14:58:00,
2013-10-01 10:03:00,60.3,45.9,29.86,West,271,3.0,5.0,59,0.00,,,0.00,58.0,meteohub,2013-10-01 15:03:00,
2013-10-01 10:08:00,60.6,46.2,29.87,West,262,6.0,6.0,59,0.00,,,0.00,58.0,meteohub,2013-10-01 15:08:00,
2013-10-01 10:13:00,61.5,46.2,29.87,WSW,243,2.0,6.0,57,0.00,,,0.00,137.0,meteohub,2013-10-01 15:13:00,
2013-10-01 10:18:00,61.3,46.4,29.87,WSW,255,4.0,6.0,58,0.00,,,0.00,46.0,meteohub,2013-10-01 15:18:00,
2013-10-01 10:23:00,61.7,45.3,29.88,West,279,3.0,6.0,55,0.00,,,0.00,53.0,meteohub,2013-10-01 15:23:00,
2013-10-01 10:28:00,61.9,45.5,29.88,WNW,286,2.0,5.0,55,0.00,,,0.00,49.0,meteohub,2013-10-01 15:28:00,
2013-10-01 10:33:00,62.4,46.6,29.88,West,279,0.0,6.0,56,0.00,,,0.00,323.0,meteohub,2013-10-01 15:33:00,
2013-10-01 10:38:00,62.8,45.3,29.88,West,275,4.0,6.0,53,0.00,,,0.00,383.0,meteohub,2013-10-01 15:38:00,
2013-10-01 10:43:00,62.8,46.4,29.88,West,271,1.0,8.0,55,0.00,,,0.00,116.0,meteohub,2013-10-01 15:43:00,
2013-10-01 10:48:00,62.8,44.4,29.88,WSW,253,4.0,8.0,51,0.00,,,0.00,62.0,meteohub,2013-10-01 15:48:00,
2013-10-01 10:53:00,63.0,44.6,29.88,West,261,3.0,8.0,51,0.00,,,0.00,113.0,meteohub,2013-10-01 15:53:00,
2013-10-01 10:58:00,62.8,46.9,29.89,West,269,1.0,8.0,56,0.00,,,0.00,60.0,meteohub,2013-10-01 15:58:00,
2013-10-01 11:03:00,63.0,45.1,29.89,WSW,242,2.0,8.0,52,0.00,,,0.00,84.0,meteohub,2013-10-01 16:03:00,
2013-10-01 11:08:00,63.3,46.4,29.89,WSW,251,4.0,5.0,54,0.00,,,0.00,174.0,meteohub,2013-10-01 16:08:00,
2013-10-01 11:14:00,63.5,45.5,29.89,West,273,0.0,7.0,52,0.00,,,0.00,60.0,meteohub,2013-10-01 16:14:00,
2013-10-01 11:19:00,63.9,46.4,29.89,West,275,2.0,7.0,53,0.00,,,0.00,84.0,meteohub,2013-10-01 16:19:00,
2013-10-01 11:24:00,64.0,43.9,29.89,WSW,250,2.0,7.0,48,0.00,,,0.00,84.0,meteohub,2013-10-01 16:24:00,
2013-10-01 11:29:00,64.4,44.2,29.89,WSW,256,6.0,6.0,48,0.00,,,0.00,132.0,meteohub,2013-10-01 16:29:00,
2013-10-01 11:31:00,64.6,43.3,29.89,West,263,2.0,6.0,46,0.00,,,0.00,54.0,meteohub,2013-10-01 16:31:00,
2013-10-01 11:36:00,64.8,45.7,29.89,WSW,242,4.0,6.0,50,0.00,,,0.00,186.0,meteohub,2013-10-01 16:36:00,
2013-10-01 11:41:00,64.9,44.8,29.89,West,281,3.0,7.0,48,0.00,,,0.00,107.0,meteohub,2013-10-01 16:41:00,
2013-10-01 11:46:00,64.9,44.2,29.89,WSW,243,0.0,7.0,47,0.00,,,0.00,241.0,meteohub,2013-10-01 16:46:00,
2013-10-01 11:51:00,65.7,45.5,29.89,WSW,257,2.0,7.0,48,0.00,,,0.00,441.0,meteohub,2013-10-01 16:51:00,
2013-10-01 11:56:00,65.5,45.3,29.89,West,267,1.0,5.0,48,0.00,,,0.00,295.0,meteohub,2013-10-01 16:56:00,
2013-10-01 12:01:00,65.7,43.7,29.89,WSW,254,0.0,5.0,45,0.00,,,0.00,585.0,meteohub,2013-10-01 17:01:00,
2013-10-01 12:07:00,66.0,46.8,29.88,SW,236,3.0,5.0,50,0.00,,,0.00,345.0,meteohub,2013-10-01 17:07:00,
2013-10-01 12:12:00,66.6,43.3,29.88,West,261,0.0,7.0,43,0.00,,,0.00,213.0,meteohub,2013-10-01 17:12:00,
2013-10-01 12:17:00,66.7,43.0,29.88,WNW,302,1.0,7.0,42,0.00,,,0.00,346.0,meteohub,2013-10-01 17:17:00,
2013-10-01 12:22:00,67.6,41.7,29.89,West,265,4.0,7.0,39,0.00,,,0.00,132.0,meteohub,2013-10-01 17:22:00,
2013-10-01 12:27:00,68.0,43.3,29.88,WSW,257,3.0,9.0,41,0.00,,,0.00,540.0,meteohub,2013-10-01 17:27:00,
2013-10-01 12:32:00,68.2,43.0,29.89,West,269,4.0,9.0,40,0.00,,,0.00,638.0,meteohub,2013-10-01 17:32:00,
2013-10-01 12:37:00,67.8,44.4,29.88,WSW,246,4.0,8.0,43,0.00,,,0.00,640.0,meteohub,2013-10-01 17:37:00,
2013-10-01 12:42:00,68.4,43.2,29.89,West,275,3.0,8.0,40,0.00,,,0.00,647.0,meteohub,2013-10-01 17:42:00,
2013-10-01 12:47:00,68.7,41.4,29.89,WSW,248,7.0,8.0,37,0.00,,,0.00,649.0,meteohub,2013-10-01 17:47:00,
2013-10-01 12:52:00,69.1,40.3,29.89,WNW,284,2.0,7.0,35,0.00,,,0.00,649.0,meteohub,2013-10-01 17:52:00,
2013-10-01 12:58:00,69.1,43.2,29.89,West,259,4.0,7.0,39,0.00,,,0.00,650.0,meteohub,2013-10-01 17:58:00,
2013-10-01 13:03:00,69.3,43.2,29.89,WNW,296,1.0,7.0,39,0.00,,,0.00,654.0,meteohub,2013-10-01 18:03:00,
2013-10-01 13:08:00,69.6,42.3,29.88,WSW,258,4.0,8.0,37,0.00,,,0.00,610.0,meteohub,2013-10-01 18:08:00,
2013-10-01 13:13:00,69.8,42.4,29.88,West,275,3.0,8.0,37,0.00,,,0.00,659.0,meteohub,2013-10-01 18:13:00,
2013-10-01 13:18:00,70.0,43.2,29.88,WSW,250,6.0,8.0,38,0.00,,,0.00,666.0,meteohub,2013-10-01 18:18:00,
2013-10-01 13:23:00,70.2,38.8,29.88,WSW,245,3.0,7.0,32,0.00,,,0.00,664.0,meteohub,2013-10-01 18:23:00,
2013-10-01 13:28:00,70.5,39.2,29.88,West,277,4.0,8.0,32,0.00,,,0.00,213.0,meteohub,2013-10-01 18:28:00,
2013-10-01 13:33:00,70.3,41.4,29.88,WSW,253,4.0,8.0,35,0.00,,,0.00,105.0,meteohub,2013-10-01 18:33:00,
2013-10-01 13:38:00,70.3,43.5,29.88,West,260,4.0,8.0,38,0.00,,,0.00,56.0,meteohub,2013-10-01 18:38:00,
2013-10-01 13:43:00,70.5,39.2,29.88,West,260,2.0,9.0,32,0.00,,,0.00,661.0,meteohub,2013-10-01 18:43:00,
2013-10-01 13:48:00,70.2,39.7,29.88,WSW,246,4.0,9.0,33,0.00,,,0.00,633.0,meteohub,2013-10-01 18:48:00,
2013-10-01 13:53:00,70.3,42.8,29.88,West,267,4.0,9.0,37,0.00,,,0.00,591.0,meteohub,2013-10-01 18:53:00,
2013-10-01 13:58:00,70.7,38.7,29.88,WSW,258,1.0,8.0,31,0.00,,,0.00,652.0,meteohub,2013-10-01 18:58:00,
2013-10-01 14:03:00,70.9,40.3,29.88,West,266,4.0,7.0,33,0.00,,,0.00,652.0,meteohub,2013-10-01 19:03:00,
2013-10-01 14:09:00,70.9,37.9,29.88,WSW,250,6.0,8.0,30,0.00,,,0.00,652.0,meteohub,2013-10-01 19:09:00,
2013-10-01 14:14:00,70.5,39.2,29.88,West,263,5.0,8.0,32,0.00,,,0.00,638.0,meteohub,2013-10-01 19:14:00,
2013-10-01 14:19:00,71.2,39.0,29.88,West,266,5.0,8.0,31,0.00,,,0.00,635.0,meteohub,2013-10-01 19:19:00,
2013-10-01 14:24:00,71.1,41.4,29.88,WSW,242,3.0,8.0,34,0.00,,,0.00,631.0,meteohub,2013-10-01 19:24:00,
2013-10-01 14:29:00,71.2,43.7,29.88,West,274,5.0,6.0,37,0.00,,,0.00,628.0,meteohub,2013-10-01 19:29:00,
2013-10-01 14:34:00,71.2,37.4,29.89,West,265,2.0,10.0,29,0.00,,,0.00,622.0,meteohub,2013-10-01 19:34:00,
2013-10-01 14:39:00,71.2,41.4,29.89,West,271,3.0,10.0,34,0.00,,,0.00,613.0,meteohub,2013-10-01 19:39:00,
2013-10-01 14:44:00,71.2,40.6,29.89,West,271,2.0,10.0,33,0.00,,,0.00,610.0,meteohub,2013-10-01 19:44:00,
2013-10-01 14:49:00,71.1,42.1,29.89,WSW,251,3.0,7.0,35,0.00,,,0.00,603.0,meteohub,2013-10-01 19:49:00,
2013-10-01 14:55:00,71.4,41.5,29.89,WSW,249,4.0,7.0,34,0.00,,,0.00,596.0,meteohub,2013-10-01 19:55:00,
2013-10-01 15:00:00,71.4,41.5,29.89,West,261,4.0,7.0,34,0.00,,,0.00,591.0,meteohub,2013-10-01 20:00:00,
2013-10-01 15:05:00,71.4,41.5,29.89,WSW,249,3.0,8.0,34,0.00,,,0.00,584.0,meteohub,2013-10-01 20:05:00,
2013-10-01 15:10:00,71.4,40.1,29.89,West,262,2.0,8.0,32,0.00,,,0.00,573.0,meteohub,2013-10-01 20:10:00,
2013-10-01 15:15:00,71.6,40.1,29.89,SW,225,5.0,8.0,32,0.00,,,0.00,571.0,meteohub,2013-10-01 20:15:00,
2013-10-01 15:20:00,71.2,42.3,29.89,WNW,291,6.0,9.0,35,0.00,,,0.00,376.0,meteohub,2013-10-01 20:20:00,
2013-10-01 15:25:00,71.4,37.6,29.89,West,273,4.0,9.0,29,0.00,,,0.00,369.0,meteohub,2013-10-01 20:25:00,
2013-10-01 15:30:00,71.4,41.5,29.89,WSW,250,2.0,9.0,34,0.00,,,0.00,302.0,meteohub,2013-10-01 20:30:00,
2013-10-01 15:35:00,71.2,39.9,29.89,WSW,255,5.0,8.0,32,0.00,,,0.00,258.0,meteohub,2013-10-01 20:35:00,
2013-10-01 15:41:00,71.1,44.2,29.89,WSW,258,1.0,7.0,38,0.00,,,0.00,218.0,meteohub,2013-10-01 20:41:00,
2013-10-01 15:46:00,71.1,42.8,29.89,West,273,2.0,7.0,36,0.00,,,0.00,338.0,meteohub,2013-10-01 20:46:00,
2013-10-01 15:51:00,71.4,40.8,29.89,West,263,4.0,7.0,33,0.00,,,0.00,76.0,meteohub,2013-10-01 20:51:00,
2013-10-01 15:56:00,71.4,41.5,29.89,West,265,2.0,7.0,34,0.00,,,0.00,104.0,meteohub,2013-10-01 20:56:00,
2013-10-01 16:01:00,71.2,42.3,29.89,WSW,244,2.0,7.0,35,0.00,,,0.00,86.0,meteohub,2013-10-01 21:01:00,
2013-10-01 16:06:00,71.1,43.5,29.89,West,260,3.0,7.0,37,0.00,,,0.00,69.0,meteohub,2013-10-01 21:06:00,
2013-10-01 16:11:00,71.1,39.7,29.89,WSW,252,2.0,7.0,32,0.00,,,0.00,98.0,meteohub,2013-10-01 21:11:00,
2013-10-01 16:16:00,71.4,40.1,29.89,West,269,5.0,7.0,32,0.00,,,0.00,47.0,meteohub,2013-10-01 21:16:00,
2013-10-01 16:21:00,71.4,39.2,29.89,WSW,254,3.0,7.0,31,0.00,,,0.00,53.0,meteohub,2013-10-01 21:21:00,
2013-10-01 16:26:00,71.1,39.7,29.89,WSW,254,5.0,6.0,32,0.00,,,0.00,42.0,meteohub,2013-10-01 21:26:00,
2013-10-01 16:31:00,71.2,37.4,29.89,West,274,0.0,6.0,29,0.00,,,0.00,44.0,meteohub,2013-10-01 21:31:00,
2013-10-01 16:36:00,71.1,44.2,29.89,West,260,2.0,6.0,38,0.00,,,0.00,40.0,meteohub,2013-10-01 21:36:00,
2013-10-01 16:41:00,70.5,39.2,29.89,West,264,3.0,6.0,32,0.00,,,0.00,40.0,meteohub,2013-10-01 21:41:00,
2013-10-01 16:46:00,70.9,37.9,29.89,West,267,4.0,7.0,30,0.00,,,0.00,53.0,meteohub,2013-10-01 21:46:00,
2013-10-01 16:51:00,70.9,37.9,29.89,West,262,2.0,7.0,30,0.00,,,0.00,40.0,meteohub,2013-10-01 21:51:00,
2013-10-01 16:56:00,70.9,41.9,29.89,SE,134,2.0,7.0,35,0.00,,,0.00,76.0,meteohub,2013-10-01 21:56:00,
2013-10-01 17:01:00,70.5,41.5,29.89,WSW,257,4.0,7.0,35,0.00,,,0.00,134.0,meteohub,2013-10-01 22:01:00,
2013-10-01 17:06:00,70.5,40.8,29.89,West,262,1.0,6.0,34,0.00,,,0.00,56.0,meteohub,2013-10-01 22:06:00,
2013-10-01 17:11:00,70.2,41.9,29.89,WSW,257,3.0,5.0,36,0.00,,,0.00,100.0,meteohub,2013-10-01 22:11:00,
2013-10-01 17:16:00,70.2,39.7,29.89,SW,229,1.0,7.0,33,0.00,,,0.00,135.0,meteohub,2013-10-01 22:16:00,
2013-10-01 17:22:00,70.3,39.9,29.90,WSW,257,3.0,7.0,33,0.00,,,0.00,51.0,meteohub,2013-10-01 22:22:00,
2013-10-01 17:27:00,70.3,39.0,29.90,WSW,248,2.0,7.0,32,0.00,,,0.00,35.0,meteohub,2013-10-01 22:27:00,
2013-10-01 17:32:00,70.2,38.8,29.90,WSW,258,1.0,7.0,32,0.00,,,0.00,32.0,meteohub,2013-10-01 22:32:00,
2013-10-01 17:37:00,69.8,39.4,29.90,West,259,1.0,5.0,33,0.00,,,0.00,33.0,meteohub,2013-10-01 22:37:00,
2013-10-01 17:42:00,69.4,41.4,29.90,West,271,3.0,5.0,36,0.00,,,0.00,28.0,meteohub,2013-10-01 22:42:00,
2013-10-01 17:47:00,69.4,41.4,29.90,West,267,4.0,6.0,36,0.00,,,0.00,26.0,meteohub,2013-10-01 22:47:00,
2013-10-01 17:52:00,69.3,39.7,29.90,West,270,4.0,6.0,34,0.00,,,0.00,26.0,meteohub,2013-10-01 22:52:00,
2013-10-01 17:57:00,69.3,38.8,29.90,West,259,2.0,6.0,33,0.00,,,0.00,30.0,meteohub,2013-10-01 22:57:00,
2013-10-01 18:02:00,69.1,38.8,29.90,West,263,2.0,5.0,33,0.00,,,0.00,25.0,meteohub,2013-10-01 23:02:00,
2013-10-01 18:07:00,68.9,40.1,29.90,West,274,2.0,5.0,35,0.00,,,0.00,23.0,meteohub,2013-10-01 23:07:00,
2013-10-01 18:12:00,68.5,40.5,29.90,WSW,252,2.0,5.0,36,0.00,,,0.00,21.0,meteohub,2013-10-01 23:12:00,
2013-10-01 18:17:00,68.2,41.0,29.90,WSW,252,1.0,4.0,37,0.00,,,0.00,19.0,meteohub,2013-10-01 23:17:00,
2013-10-01 18:20:00,67.8,41.4,29.90,WSW,252,2.0,4.0,38,0.00,,,0.00,18.0,meteohub,2013-10-01 23:20:00,
2013-10-01 18:25:00,67.8,41.4,29.91,WSW,252,2.0,3.0,38,0.00,,,0.00,16.0,meteohub,2013-10-01 23:25:00,
2013-10-01 18:30:00,67.5,41.0,29.91,WSW,252,2.0,3.0,38,0.00,,,0.00,16.0,meteohub,2013-10-01 23:30:00,
2013-10-01 18:35:00,67.5,39.6,29.91,WSW,252,1.0,3.0,36,0.00,,,0.00,14.0,meteohub,2013-10-01 23:35:00,
2013-10-01 18:40:00,67.1,39.2,29.91,WSW,252,0.0,3.0,36,0.00,,,0.00,12.0,meteohub,2013-10-01 23:40:00,
2013-10-01 18:45:00,67.1,37.8,29.91,WSW,252,0.0,3.0,34,0.00,,,0.00,11.0,meteohub,2013-10-01 23:45:00,
2013-10-01 18:50:00,66.7,38.3,29.91,WSW,252,0.0,3.0,35,0.00,,,0.00,9.0,meteohub,2013-10-01 23:50:00,
2013-10-01 18:55:00,65.5,39.9,29.91,WSW,252,0.0,3.0,39,0.00,,,0.00,5.0,meteohub,2013-10-01 23:55:00,
2013-10-01 19:00:00,63.9,41.0,29.91,WSW,252,0.0,2.0,43,0.00,,,0.00,0.0,meteohub,2013-10-02 00:00:00,
2013-10-01 19:05:00,63.1,40.8,29.91,WSW,252,0.0,0.0,44,0.00,,,0.00,0.0,meteohub,2013-10-02 00:05:00,
2013-10-01 19:10:00,62.4,40.3,29.91,WSW,252,0.0,0.0,44,0.00,,,0.00,0.0,meteohub,2013-10-02 00:10:00,
2013-10-01 19:15:00,62.2,40.1,29.92,WSW,252,0.0,0.0,44,0.00,,,0.00,0.0,meteohub,2013-10-02 00:15:00,
2013-10-01 19:16:00,62.1,39.9,29.92,WSW,252,0.0,0.0,44,0.00,,,0.00,0.0,meteohub,2013-10-02 00:16:00,
2013-10-01 19:21:00,61.7,40.1,29.92,WSW,252,0.0,0.0,45,0.00,,,0.00,0.0,meteohub,2013-10-02 00:21:00,
2013-10-01 19:26:00,61.2,40.8,29.92,WSW,252,0.0,0.0,47,0.00,,,0.00,0.0,meteohub,2013-10-02 00:26:00,
2013-10-01 19:31:00,60.8,41.0,29.92,WSW,252,0.0,0.0,48,0.00,,,0.00,0.0,meteohub,2013-10-02 00:31:00,
2013-10-01 19:37:00,60.6,41.9,29.92,WSW,252,0.0,0.0,50,0.00,,,0.00,0.0,meteohub,2013-10-02 00:37:00,
2013-10-01 19:42:00,60.3,42.1,29.92,WSW,252,0.0,0.0,51,0.00,,,0.00,0.0,meteohub,2013-10-02 00:42:00,
2013-10-01 19:47:00,60.1,40.8,29.93,WSW,252,0.0,0.0,49,0.00,,,0.00,0.0,meteohub,2013-10-02 00:47:00,
2013-10-01 19:52:00,60.1,40.3,29.93,WSW,252,0.0,0.0,48,0.00,,,0.00,0.0,meteohub,2013-10-02 00:52:00,
2013-10-01 19:57:00,60.3,40.5,29.93,WSW,252,0.0,0.0,48,0.00,,,0.00,0.0,meteohub,2013-10-02 00:57:00,
2013-10-01 20:02:00,60.1,40.8,29.93,WSW,252,0.0,0.0,49,0.00,,,0.00,0.0,meteohub,2013-10-02 01:02:00,
2013-10-01 20:07:00,59.9,40.6,29.93,WSW,252,0.0,0.0,49,0.00,,,0.00,0.0,meteohub,2013-10-02 01:07:00,
2013-10-01 20:12:00,59.7,41.5,29.93,WSW,252,0.0,0.0,51,0.00,,,0.00,0.0,meteohub,2013-10-02 01:12:00,
2013-10-01 20:17:00,59.5,41.9,29.93,WSW,252,0.0,0.0,52,0.00,,,0.00,0.0,meteohub,2013-10-02 01:17:00,
2013-10-01 20:22:00,59.2,42.6,29.93,WSW,252,0.0,0.0,54,0.00,,,0.00,0.0,meteohub,2013-10-02 01:22:00,
2013-10-01 20:27:00,58.6,42.4,29.94,WSW,252,0.0,0.0,55,0.00,,,0.00,0.0,meteohub,2013-10-02 01:27:00,
2013-10-01 20:32:00,58.6,42.4,29.94,WSW,252,0.0,0.0,55,0.00,,,0.00,0.0,meteohub,2013-10-02 01:32:00,
2013-10-01 20:37:00,58.5,41.4,29.94,WSW,252,0.0,0.0,53,0.00,,,0.00,0.0,meteohub,2013-10-02 01:37:00,
2013-10-01 20:42:00,58.1,43.3,29.94,WSW,252,0.0,0.0,58,0.00,,,0.00,0.0,meteohub,2013-10-02 01:42:00,
2013-10-01 20:47:00,57.7,43.5,29.94,WSW,252,0.0,0.0,59,0.00,,,0.00,0.0,meteohub,2013-10-02 01:47:00,
2013-10-01 20:52:00,57.6,42.4,29.94,WSW,252,0.0,0.0,57,0.00,,,0.00,0.0,meteohub,2013-10-02 01:52:00,
2013-10-01 20:57:00,57.2,43.0,29.94,WSW,252,0.0,0.0,59,0.00,,,0.00,0.0,meteohub,2013-10-02 01:57:00,
2013-10-01 21:02:00,56.8,42.3,29.95,WSW,252,0.0,1.0,58,0.00,,,0.00,0.0,meteohub,2013-10-02 02:02:00,
2013-10-01 21:07:00,56.5,43.2,29.95,WSW,252,0.0,1.0,61,0.00,,,0.00,0.0,meteohub,2013-10-02 02:07:00,
2013-10-01 21:12:00,56.5,42.3,29.94,WSW,252,0.0,0.0,59,0.00,,,0.00,0.0,meteohub,2013-10-02 02:12:00,
2013-10-01 21:17:00,56.3,42.6,29.95,WSW,252,0.0,0.0,60,0.00,,,0.00,0.0,meteohub,2013-10-02 02:17:00,
2013-10-01 21:22:00,56.5,43.2,29.95,WSW,252,0.0,0.0,61,0.00,,,0.00,0.0,meteohub,2013-10-02 02:22:00,
2013-10-01 21:27:00,56.5,41.9,29.95,WSW,252,0.0,0.0,58,0.00,,,0.00,0.0,meteohub,2013-10-02 02:27:00,
2013-10-01 21:32:00,56.5,41.9,29.95,WSW,252,0.0,0.0,58,0.00,,,0.00,0.0,meteohub,2013-10-02 02:32:00,
2013-10-01 21:37:00,56.5,41.9,29.95,WSW,252,0.0,0.0,58,0.00,,,0.00,0.0,meteohub,2013-10-02 02:37:00,
2013-10-01 21:42:00,56.1,41.9,29.96,WSW,252,0.0,0.0,59,0.00,,,0.00,0.0,meteohub,2013-10-02 02:42:00,
2013-10-01 21:47:00,55.9,42.6,29.96,WSW,252,0.0,0.0,61,0.00,,,0.00,0.0,meteohub,2013-10-02 02:47:00,
2013-10-01 21:52:00,55.8,41.7,29.96,WSW,252,0.0,0.0,59,0.00,,,0.00,0.0,meteohub,2013-10-02 02:52:00,
2013-10-01 21:57:00,55.6,43.2,29.96,WSW,252,0.0,0.0,63,0.00,,,0.00,0.0,meteohub,2013-10-02 02:57:00,
2013-10-01 22:02:00,55.4,42.3,29.96,WSW,252,0.0,0.0,61,0.00,,,0.00,0.0,meteohub,2013-10-02 03:02:00,
2013-10-01 22:07:00,55.2,40.6,29.96,WSW,252,0.0,0.0,58,0.00,,,0.00,0.0,meteohub,2013-10-02 03:07:00,
2013-10-01 22:12:00,55.2,40.6,29.96,WSW,252,0.0,0.0,58,0.00,,,0.00,0.0,meteohub,2013-10-02 03:12:00,
2013-10-01 22:17:00,55.2,43.3,29.96,WSW,252,0.0,0.0,64,0.00,,,0.00,0.0,meteohub,2013-10-02 03:17:00,
2013-10-01 22:22:00,55.0,42.3,29.97,WSW,252,0.0,0.0,62,0.00,,,0.00,0.0,meteohub,2013-10-02 03:22:00,
2013-10-01 22:27:00,54.9,41.7,29.97,WSW,252,0.0,0.0,61,0.00,,,0.00,0.0,meteohub,2013-10-02 03:27:00,
2013-10-01 22:32:00,54.7,42.3,29.97,WSW,252,0.0,0.0,63,0.00,,,0.00,0.0,meteohub,2013-10-02 03:32:00,
2013-10-01 22:37:00,54.3,41.5,29.97,WSW,252,0.0,0.0,62,0.00,,,0.00,0.0,meteohub,2013-10-02 03:37:00,
2013-10-01 22:42:00,54.3,41.5,29.97,WSW,252,0.0,0.0,62,0.00,,,0.00,0.0,meteohub,2013-10-02 03:42:00,
2013-10-01 22:47:00,54.0,42.4,29.97,WSW,252,0.0,0.0,65,0.00,,,0.00,0.0,meteohub,2013-10-02 03:47:00,
2013-10-01 22:52:00,53.2,44.4,29.98,WSW,252,0.0,1.0,72,0.00,,,0.00,0.0,meteohub,2013-10-02 03:52:00,
2013-10-01 22:57:00,52.5,43.0,29.97,WSW,252,0.0,1.0,70,0.00,,,0.00,0.0,meteohub,2013-10-02 03:57:00,
2013-10-01 23:01:00,52.9,43.7,29.98,WSW,252,0.0,1.0,71,0.00,,,0.00,0.0,meteohub,2013-10-02 04:01:00,
2013-10-01 23:02:00,52.9,43.3,29.98,WSW,252,0.0,1.0,70,0.00,,,0.00,0.0,meteohub,2013-10-02 04:02:00,
2013-10-01 23:07:00,53.1,42.1,29.98,WSW,252,0.0,1.0,66,0.00,,,0.00,0.0,meteohub,2013-10-02 04:07:00,
2013-10-01 23:12:00,53.1,41.5,29.99,WSW,252,0.0,1.0,65,0.00,,,0.00,0.0,meteohub,2013-10-02 04:12:00,
2013-10-01 23:17:00,53.1,42.1,29.99,WSW,252,0.0,1.0,66,0.00,,,0.00,0.0,meteohub,2013-10-02 04:17:00,
2013-10-01 23:22:00,52.9,41.4,29.99,WSW,252,0.0,0.0,65,0.00,,,0.00,0.0,meteohub,2013-10-02 04:22:00,
2013-10-01 23:28:00,52.9,41.0,29.99,WSW,252,0.0,0.0,64,0.00,,,0.00,0.0,meteohub,2013-10-02 04:28:00,
2013-10-01 23:33:00,52.7,40.8,29.99,WSW,252,0.0,0.0,64,0.00,,,0.00,0.0,meteohub,2013-10-02 04:33:00,
2013-10-01 23:38:00,52.3,41.0,29.99,WSW,252,0.0,0.0,65,0.00,,,0.00,0.0,meteohub,2013-10-02 04:38:00,
2013-10-01 23:43:00,52.2,41.2,29.99,WSW,252,0.0,0.0,66,0.00,,,0.00,0.0,meteohub,2013-10-02 04:43:00,
2013-10-01 23:48:00,52.0,41.4,29.99,WSW,252,0.0,0.0,67,0.00,,,0.00,0.0,meteohub,2013-10-02 04:48:00,
2013-10-01 23:53:00,51.6,41.0,29.99,WSW,252,0.0,0.0,67,0.00,,,0.00,0.0,meteohub,2013-10-02 04:53:00,
2013-10-01 23:58:00,51.4,41.9,29.99,WSW,252,0.0,0.0,70,0.00,,,0.00,0.0,meteohub,2013-10-02 04:58:00,